Regional Weather Roundup
Issued by NWS

Home | Current Version | Previous Version | Graphics & Text | Print | Product List | Glossary On
Versions: 1 2 3 4 5 6 7 8 9 10 11 12 13 14 15 16 17 18 19 20 21 22 23 24 25 26 27 28 29 30 31 32 33 34 35 36 37 38 39 40 41 42 43 44 45 46 47 48 49 50
000
ASUS43 KLMK 311310
RWRKY
KENTUCKY REGIONAL WEATHER ROUNDUP
NATIONAL WEATHER SERVICE LOUISVILLE KY
900 AM EDT MON AUG 31 2015

NOTE "FAIR" INDICATES FEW OR NO CLOUDS BELOW 12,000 FEET
WITH NO SIGNIFICANT WEATHER AND/OR OBSTRUCTIONS TO VISIBILITY.

KYZ001>023-026-027-061>063-070>075-311400-
WESTERN AND SOUTH CENTRAL KENTUCKY

CITY           SKY/WX    TMP DP  RH WIND       PRES   REMARKS
PADUCAH        SUNNY     70  67  90 CALM      30.12R
HENDERSON      SUNNY     70  66  88 CALM      30.12R
OWENSBORO      SUNNY     71  68  90 S6        30.14R
HOPKINSVILLE   SUNNY     68  65  92 VRB1      30.14R
BOWLING GREEN  SUNNY     69  65  86 CALM      30.15R
GLASGOW        SUNNY     67  67  99 CALM      30.16R
$$

KYZ024-025-028>034-038-045-046-053-311400-
NORTH CENTRAL KENTUCKY

CITY           SKY/WX    TMP DP  RH WIND       PRES   REMARKS
LOUISVILLE/SDF MOSUNNY   72  65  78 S3        30.13R
LOUISVILLE/LOU SUNNY     72  66  81 S3        30.14R
FORT KNOX      SUNNY     70  64  83 VRB2      30.14R
$$

KYZ035>037-039>044-047>052-055>060-089>105-311400-
NORTHEAST KENTUCKY

CITY           SKY/WX    TMP DP  RH WIND       PRES   REMARKS
LEXINGTON      PTSUNNY   72  65  78 VRB3      30.16R
COVINGTON      PTSUNNY   70  67  90 SW5       30.14R
FRANKFORT      SUNNY     69  64  84 CALM      30.14R
$$

KYZ054-064>069-076>088-106>120-311400-
SOUTHEAST KENTUCKY

CITY           SKY/WX    TMP DP  RH WIND       PRES   REMARKS
JACKSON        SUNNY     69  67  93 CALM      30.17S
LONDON         SUNNY     70  63  78 CALM      30.17R
SOMERSET       FOG       64  64 100 CALM      30.18R VSB 1/4
MIDDLESBORO    SUNNY     65  63  93 CALM      30.18S
MONTICELLO     SUNNY     67  67 100 CALM      30.19S
$$




USA.gov is the U.S. government's official web portal to all federal, state and local government web resources and services.